Terminal Aerodrome Forecast
Issued by NWS Mobile, AL

Home | Current Version | Previous Version | Text Only | Print | Product List | Glossary On
Versions: 1 2 3 4 5 6 7 8 9 10 11 12 13 14 15 16 17 18 19 20 21 22 23 24 25 26 27 28 29 30 31 32 33 34 35 36 37 38 39 40 41 42 43 44 45 46
000
FTUS44 KMOB 181741
TAFPNS
TAF
KPNS 181741Z 1818/1918 27005KT 5SM -RA BR BKN007 BKN110
     FM181900 24006KT P6SM -RA BKN020 BKN110
     FM182100 18009KT P6SM -RA BKN025
     FM190300 19008KT P6SM -SHRA BKN025=

USA.gov is the U.S. government's official web portal to all federal, state and local government web resources and services.